M I D A S
Marine Information and Data Acquisition System
Tripno 862 of the Zeeleeuw from 2005-03-14 08:39:53 to 2005-03-14 13:46:52
Back to CruiseResearch ActivitiesStationsMapUnderway DataData graphs

EquipmentUnitsComments
TimeDGPSUTC
LatitudeDGPSDM.mWGS84
LongitudeDGPSDM.mWGS84
SpeedMeteo Stationm/sRelative wind speed
DirectionMeteo StationdegRelative wind direction
TemperatureMeteo Stationdeg CelciusAir temperature
PressureMeteo StationPaAtmospheric pressure
HumidityMeteo Station%Relative humidity
Missing or incorrect values are displayed as -999
Metereological data collected by the RV Zeeleeuw from 2005-03-14 08:40:48 to 2005-03-14 13:56:38
                                                                                    Next 1000 lines
Time Latitude Longitude Speed Direction Temperature Pressure Humidity
2005-03-14 08:40:57 51°13.621 2°56.046 2.3 108 4.2 101300 85
2005-03-14 08:41:03 51°13.622 2°56.04 2.3 130 4.2 101300 85
2005-03-14 08:41:09 51°13.625 2°56.033 2.7 135 4.2 101300 85
2005-03-14 08:41:14 51°13.626 2°56.027 2.7 140 4.2 101300 85
2005-03-14 08:41:19 51°13.629 2°56.02 3.6 147 4.2 101300 85
2005-03-14 08:41:24 51°13.631 2°56.013 3.3 145 4.2 101310 85
2005-03-14 08:41:29 51°13.632 2°56.005 3.2 148 4.2 101310 85
2005-03-14 08:41:34 51°13.634 2°55.998 2.5 148 4.2 101300 85
2005-03-14 08:41:39 51°13.636 2°55.99 1.9 142 4.2 101300 85
2005-03-14 08:41:44 51°13.637 2°55.983 1.6 160 4.2 101310 85
2005-03-14 08:41:49 51°13.639 2°55.978 0.9 109 4.2 101310 85
2005-03-14 08:41:54 51°13.639 2°55.976 0.8 123 4.2 101310 85
2005-03-14 08:41:59 51°13.639 2°55.977 0.6 116 4.2 101310 85
2005-03-14 08:42:04 51°13.639 2°55.978 1.5 63 4.2 101310 85
2005-03-14 08:42:09 51°13.638 2°55.978 1.7 54 4.2 101310 85
2005-03-14 08:42:13 51°13.639 2°55.977 1.7 60 4.2 101300 85
2005-03-14 08:42:19 51°13.64 2°55.975 1.4 113 4.2 101300 85
2005-03-14 08:42:23 51°13.64 2°55.973 4 100 4.2 101300 85
2005-03-14 08:42:29 51°13.642 2°55.968 3.4 135 4.2 101300 85
2005-03-14 08:42:34 51°13.644 2°55.964 3.9 122 4.2 101310 85
2005-03-14 08:42:39 51°13.646 2°55.959 2.7 119 4.2 101310 85
2005-03-14 08:42:45 51°13.648 2°55.952 3.6 162 4.2 101310 85
2005-03-14 08:42:49 51°13.651 2°55.947 3.5 150 4.2 101310 85
2005-03-14 08:42:54 51°13.653 2°55.94 3 159 4.2 101300 85
2005-03-14 08:42:59 51°13.656 2°55.934 3.6 155 4.2 101300 85
2005-03-14 08:43:04 51°13.659 2°55.926 2.8 177 4.2 101300 85
2005-03-14 08:43:09 51°13.662 2°55.919 3.7 145 4.2 101300 85
2005-03-14 08:43:14 51°13.665 2°55.912 3.8 142 4.2 101300 85
2005-03-14 08:43:19 51°13.669 2°55.905 4 134 4.2 101300 85
2005-03-14 08:43:24 51°13.672 2°55.896 4.4 137 4.2 101310 85
2005-03-14 08:43:29 51°13.676 2°55.888 3.6 129 4.2 101310 85
2005-03-14 08:43:35 51°13.68 2°55.879 3 137 4.2 101310 85
2005-03-14 08:43:39 51°13.683 2°55.872 2.8 134 4.2 101310 85
2005-03-14 08:43:44 51°13.687 2°55.863 2.4 44 4.2 101300 85
2005-03-14 08:43:49 51°13.69 2°55.854 3.7 163 4.2 101300 85
2005-03-14 08:43:54 51°13.694 2°55.845 4.3 151 4.2 101310 85
2005-03-14 08:43:59 51°13.698 2°55.835 3.6 172 4.2 101310 85
2005-03-14 08:44:04 51°13.701 2°55.826 3.3 164 4.2 101300 85
2005-03-14 08:44:09 51°13.704 2°55.817 2.9 163 4.2 101300 85
2005-03-14 08:44:14 51°13.707 2°55.808 3.5 154 4.2 101310 85
2005-03-14 08:44:19 51°13.711 2°55.799 4.9 156 4.2 101310 85
2005-03-14 08:44:24 51°13.714 2°55.789 5.3 150 4.2 101300 85
2005-03-14 08:44:29 51°13.716 2°55.78 4 155 4.2 101300 85
2005-03-14 08:44:34 51°13.718 2°55.772 5.4 149 4.2 101310 85
2005-03-14 08:44:39 51°13.721 2°55.763 4.1 130 4.2 101310 85
2005-03-14 08:44:45 51°13.723 2°55.752 3.7 128 4.2 101310 85
2005-03-14 08:44:49 51°13.724 2°55.746 2.8 129 4.2 101310 85
2005-03-14 08:44:53 51°13.725 2°55.74 2.8 127 4.2 101310 85
2005-03-14 08:44:59 51°13.726 2°55.735 1 128 4.2 101310 85
2005-03-14 08:45:03 51°13.727 2°55.732 2 121 4.2 101300 85
2005-03-14 08:45:09 51°13.728 2°55.731 2.8 107 4.2 101300 85
2005-03-14 08:45:14 51°13.729 2°55.731 3.3 106 4.2 101300 85
2005-03-14 08:45:19 51°13.73 2°55.733 2.6 125 4.2 101300 85
2005-03-14 08:45:24 51°13.731 2°55.735 2.2 167 4.2 101310 85
2005-03-14 08:45:29 51°13.732 2°55.736 2 171 4.2 101310 85
2005-03-14 08:45:34 51°13.732 2°55.736 2.5 181 4.2 101300 85
2005-03-14 08:45:39 51°13.732 2°55.735 3.1 179 4.2 101300 85
2005-03-14 08:45:43 51°13.732 2°55.734 3.6 203 4.2 101300 85
2005-03-14 08:45:49 51°13.731 2°55.731 2.5 182 4.2 101300 85
2005-03-14 08:45:54 51°13.73 2°55.727 2.1 164 4.2 101310 85
2005-03-14 08:45:59 51°13.728 2°55.723 2.6 179 4.2 101310 85
2005-03-14 08:46:03 51°13.727 2°55.721 3.1 190 4.3 101310 85
2005-03-14 08:46:09 51°13.726 2°55.716 2.1 178 4.3 101310 85
2005-03-14 08:46:13 51°13.725 2°55.714 2.1 181 4.3 101310 86
2005-03-14 08:46:19 51°13.725 2°55.713 2.3 164 4.3 101310 86
2005-03-14 08:46:24 51°13.726 2°55.713 2.2 165 4.4 101300 86
2005-03-14 08:46:29 51°13.728 2°55.714 1.5 170 4.4 101300 86
2005-03-14 08:46:35 51°13.731 2°55.715 1.1 208 4.4 101300 86
2005-03-14 08:46:39 51°13.734 2°55.715 1 202 4.4 101300 86
2005-03-14 08:46:44 51°13.739 2°55.715 1.4 293 4.4 101300 85
2005-03-14 08:46:49 51°13.744 2°55.713 1.8 306 4.4 101300 85
2005-03-14 08:46:53 51°13.748 2°55.711 1.7 308 4.4 101310 85
2005-03-14 08:46:59 51°13.755 2°55.706 2.3 315 4.4 101310 85
2005-03-14 08:47:03 51°13.758 2°55.703 2.3 312 4.4 101310 85
2005-03-14 08:47:09 51°13.765 2°55.698 2.4 307 4.4 101310 85
2005-03-14 08:47:13 51°13.77 2°55.692 2.5 290 4.4 101310 85
2005-03-14 08:47:19 51°13.778 2°55.685 1.8 287 4.4 101310 85
2005-03-14 08:47:23 51°13.783 2°55.68 1.4 295 4.4 101300 85
2005-03-14 08:47:29 51°13.793 2°55.671 1.3 289 4.4 101300 85
2005-03-14 08:47:34 51°13.8 2°55.665 1.3 282 4.4 101310 85
2005-03-14 08:47:39 51°13.808 2°55.658 1.5 346 4.4 101310 85
2005-03-14 08:47:42 51°13.814 2°55.653 1.6 343 4.4 101310 85
2005-03-14 08:47:49 51°13.825 2°55.643 2 347 4.4 101310 85
2005-03-14 08:47:54 51°13.834 2°55.636 1.8 344 4.4 101300 85
2005-03-14 08:47:57 51°13.841 2°55.631 2 342 4.4 101300 85
2005-03-14 08:48:03 51°13.847 2°55.626 2.8 332 4.4 101310 85
2005-03-14 08:48:09 51°13.863 2°55.613 2.9 355 4.4 101310 85
2005-03-14 08:48:13 51°13.871 2°55.607 2.6 338 4.4 101300 85
2005-03-14 08:48:18 51°13.881 2°55.599 2.4 352 4.4 101300 85
2005-03-14 08:48:23 51°13.89 2°55.593 3.6 339 4.4 101300 85
2005-03-14 08:48:29 51°13.902 2°55.584 3.7 354 4.4 101300 85
2005-03-14 08:48:33 51°13.911 2°55.577 3.4 329 4.4 101310 85
2005-03-14 08:48:39 51°13.922 2°55.568 2.8 338 4.4 101310 85
2005-03-14 08:48:44 51°13.934 2°55.56 3.4 346 4.4 101310 85
2005-03-14 08:48:49 51°13.943 2°55.553 2.4 355 4.4 101310 85
2005-03-14 08:48:54 51°13.954 2°55.545 2.8 334 4.5 101310 84
2005-03-14 08:48:59 51°13.965 2°55.536 2.5 339 4.5 101310 84
2005-03-14 08:49:04 51°13.977 2°55.527 3.3 359 4.5 101300 84
2005-03-14 08:49:09 51°13.987 2°55.52 3.7 357 4.5 101300 84
2005-03-14 08:49:13 51°13.997 2°55.512 3.8 356 4.5 101310 84
2005-03-14 08:49:19 51°14.011 2°55.502 3.9 322 4.5 101310 84
2005-03-14 08:49:23 51°14.018 2°55.496 4.6 299 4.4 101310 84
2005-03-14 08:49:29 51°14.032 2°55.486 3.8 291 4.4 101310 84
2005-03-14 08:49:33 51°14.042 2°55.478 3.7 313 4.4 101310 84
2005-03-14 08:49:38 51°14.053 2°55.469 4 312 4.4 101310 84
2005-03-14 08:49:43 51°14.065 2°55.461 3.7 328 4.4 101310 84
2005-03-14 08:49:49 51°14.077 2°55.452 4 347 4.4 101310 84
2005-03-14 08:49:54 51°14.089 2°55.443 4.3 343 4.5 101300 84
2005-03-14 08:49:57 51°14.097 2°55.436 3.8 326 4.5 101300 84
2005-03-14 08:50:04 51°14.113 2°55.424 3.8 328 4.5 101300 84
2005-03-14 08:50:09 51°14.125 2°55.414 3.8 353 4.5 101300 84
2005-03-14 08:50:13 51°14.136 2°55.406 4.3 349 4.5 101300 84
2005-03-14 08:50:19 51°14.15 2°55.394 4.9 338 4.5 101300 84
2005-03-14 08:50:23 51°14.16 2°55.385 4.6 343 4.5 101300 84
2005-03-14 08:50:29 51°14.175 2°55.371 5.6 356 4.5 101300 84
2005-03-14 08:50:34 51°14.188 2°55.358 5.1 357 4.4 101300 84
2005-03-14 08:50:39 51°14.199 2°55.346 5.7 360 4.4 101300 84
2005-03-14 08:50:43 51°14.21 2°55.334 5.5 7 4.4 101300 84
2005-03-14 08:50:49 51°14.222 2°55.318 6.1 347 4.4 101300 84
2005-03-14 08:50:54 51°14.233 2°55.302 6.3 341 4.4 101300 84
2005-03-14 08:50:59 51°14.244 2°55.286 7.4 337 4.4 101300 84
2005-03-14 08:51:03 51°14.253 2°55.272 7.3 326 4.5 101300 84
2005-03-14 08:51:09 51°14.266 2°55.251 8.2 337 4.5 101300 84
2005-03-14 08:51:13 51°14.275 2°55.234 7.3 323 4.5 101300 84
2005-03-14 08:51:19 51°14.286 2°55.213 6.9 328 4.5 101300 84
2005-03-14 08:51:23 51°14.295 2°55.196 7.3 330 4.5 101290 84
2005-03-14 08:51:29 51°14.306 2°55.175 6.4 330 4.5 101290 84
2005-03-14 08:51:33 51°14.315 2°55.158 7.2 226 4.5 101300 84
2005-03-14 08:51:39 51°14.327 2°55.137 7 231 4.5 101300 84
2005-03-14 08:51:43 51°14.336 2°55.121 6.7 318 4.5 101290 84
2005-03-14 08:51:49 51°14.348 2°55.098 7.8 335 4.5 101290 84
2005-03-14 08:51:53 51°14.358 2°55.082 7.4 323 4.5 101300 84
2005-03-14 08:51:59 51°14.37 2°55.061 6.5 324 4.5 101300 84
2005-03-14 08:52:03 51°14.38 2°55.044 6.7 40 4.5 101290 84
2005-03-14 08:52:09 51°14.392 2°55.025 6.4 36 4.5 101290 84
2005-03-14 08:52:13 51°14.403 2°55.009 7.8 309 4.5 101290 84
2005-03-14 08:52:19 51°14.418 2°54.989 7.1 316 4.5 101290 84
2005-03-14 08:52:23 51°14.429 2°54.973 6.5 314 4.5 101300 84
2005-03-14 08:52:29 51°14.444 2°54.954 6.2 43 4.5 101300 84
2005-03-14 08:52:33 51°14.456 2°54.938 6.4 316 4.5 101300 84
2005-03-14 08:52:38 51°14.47 2°54.922 6.3 316 4.5 101300 84
2005-03-14 08:52:44 51°14.486 2°54.904 5.8 319 4.5 101290 83
2005-03-14 08:52:49 51°14.501 2°54.889 5.9 314 4.5 101290 83
2005-03-14 08:52:53 51°14.514 2°54.876 6.6 228 4.5 101290 83
2005-03-14 08:52:59 51°14.53 2°54.858 6.1 310 4.5 101290 83
2005-03-14 08:53:03 51°14.542 2°54.846 6.1 310 4.5 101290 83
2005-03-14 08:53:09 51°14.56 2°54.829 5.9 311 4.5 101290 83
2005-03-14 08:53:13 51°14.574 2°54.818 6.2 313 4.5 101280 83
2005-03-14 08:53:19 51°14.591 2°54.804 5.8 304 4.5 101280 83
2005-03-14 08:53:23 51°14.604 2°54.795 5.3 295 4.5 101290 83
2005-03-14 08:53:28 51°14.618 2°54.786 4.5 300 4.5 101290 83
2005-03-14 08:53:33 51°14.632 2°54.779 4 299 4.5 101290 83
2005-03-14 08:53:39 51°14.646 2°54.774 3.7 283 4.5 101290 83
2005-03-14 08:53:43 51°14.657 2°54.771 3.8 287 4.5 101290 83
2005-03-14 08:53:49 51°14.668 2°54.769 3.7 271 4.5 101290 83
2005-03-14 08:53:53 51°14.677 2°54.767 3.3 267 4.5 101300 83
2005-03-14 08:53:59 51°14.688 2°54.765 2.9 250 4.5 101300 83
2005-03-14 08:54:03 51°14.694 2°54.763 3.6 247 4.5 101300 83
2005-03-14 08:54:08 51°14.703 2°54.761 3.1 243 4.5 101300 83
2005-03-14 08:54:13 51°14.711 2°54.759 3.5 243 4.5 101300 83
2005-03-14 08:54:19 51°14.718 2°54.756 3.9 238 4.5 101300 83
2005-03-14 08:54:24 51°14.725 2°54.753 3.2 245 4.5 101300 83
2005-03-14 08:54:28 51°14.73 2°54.75 3.2 245 4.5 101300 83
2005-03-14 08:54:33 51°14.736 2°54.748 4.2 240 4.5 101300 83
2005-03-14 08:54:39 51°14.743 2°54.744 4 238 4.5 101300 83
2005-03-14 08:54:43 51°14.747 2°54.741 4.7 244 4.5 101300 83
2005-03-14 08:54:47 51°14.751 2°54.739 4 246 4.5 101300 83
2005-03-14 08:54:53 51°14.757 2°54.734 2.4 253 4.5 101300 83
2005-03-14 08:54:58 51°14.762 2°54.73 2.8 255 4.5 101300 83
2005-03-14 08:55:03 51°14.766 2°54.727 3.8 251 4.5 101300 83
2005-03-14 08:55:09 51°14.772 2°54.722 4.1 248 4.5 101300 83
2005-03-14 08:55:13 51°14.775 2°54.719 4.9 237 4.5 101310 83
2005-03-14 08:55:19 51°14.779 2°54.714 4.9 245 4.5 101310 83
2005-03-14 08:55:23 51°14.782 2°54.711 4.4 242 4.5 101300 83
2005-03-14 08:55:29 51°14.786 2°54.706 4.4 249 4.5 101300 83
2005-03-14 08:55:33 51°14.789 2°54.702 3.4 253 4.4 101300 83
2005-03-14 08:55:39 51°14.792 2°54.698 3.6 249 4.4 101300 83
2005-03-14 08:55:43 51°14.795 2°54.694 4.2 251 4.4 101310 83
2005-03-14 08:55:49 51°14.798 2°54.689 4.9 250 4.4 101310 83
2005-03-14 08:55:53 51°14.801 2°54.685 4.8 249 4.4 101310 83
2005-03-14 08:55:59 51°14.804 2°54.681 4.7 254 4.4 101310 83
2005-03-14 08:56:03 51°14.806 2°54.677 4.9 250 4.4 101300 83
2005-03-14 08:56:09 51°14.809 2°54.672 4.1 254 4.4 101300 83
2005-03-14 08:56:13 51°14.811 2°54.669 4.4 252 4.4 101310 83
2005-03-14 08:56:19 51°14.814 2°54.664 4 255 4.4 101310 83
2005-03-14 08:56:24 51°14.817 2°54.66 4.5 252 4.4 101310 83
2005-03-14 08:56:29 51°14.819 2°54.656 4.3 247 4.4 101310 83
2005-03-14 08:56:33 51°14.821 2°54.653 4.8 249 4.4 101300 83
2005-03-14 08:56:39 51°14.824 2°54.648 4.6 249 4.4 101300 83
2005-03-14 08:56:44 51°14.826 2°54.644 4.7 250 4.4 101300 83
2005-03-14 08:56:47 51°14.827 2°54.642 5.1 248 4.4 101300 83
2005-03-14 08:56:53 51°14.83 2°54.637 3.9 252 4.4 101310 83
2005-03-14 08:56:59 51°14.832 2°54.633 3.4 256 4.4 101310 83
2005-03-14 08:57:04 51°14.834 2°54.629 4.9 261 4.4 101310 83
2005-03-14 08:57:09 51°14.836 2°54.625 3.6 261 4.4 101310 83
2005-03-14 08:57:13 51°14.838 2°54.622 4.1 254 4.4 101310 83
2005-03-14 08:57:18 51°14.839 2°54.618 3.9 253 4.4 101310 83
2005-03-14 08:57:23 51°14.841 2°54.615 4.8 250 4.4 101310 83
2005-03-14 08:57:29 51°14.843 2°54.611 5.3 250 4.4 101310 83
2005-03-14 08:57:33 51°14.844 2°54.608 4.2 255 4.3 101300 83
2005-03-14 08:57:38 51°14.846 2°54.604 4.7 250 4.3 101300 83
2005-03-14 08:57:43 51°14.848 2°54.6 4 253 4.4 101300 83
2005-03-14 08:57:49 51°14.85 2°54.596 4 254 4.4 101300 83
2005-03-14 08:57:53 51°14.852 2°54.592 3.7 252 4.3 101310 83
2005-03-14 08:57:59 51°14.856 2°54.587 4.5 245 4.3 101310 83
2005-03-14 08:58:03 51°14.859 2°54.584 3.8 248 4.3 101310 83
2005-03-14 08:58:09 51°14.863 2°54.579 4.1 253 4.3 101310 83
2005-03-14 08:58:13 51°14.868 2°54.575 3.7 252 4.3 101310 83
2005-03-14 08:58:17 51°14.873 2°54.57 2.4 257 4.3 101310 83
2005-03-14 08:58:23 51°14.881 2°54.564 3.3 257 4.3 101310 83
2005-03-14 08:58:29 51°14.889 2°54.557 3.1 259 4.3 101310 83
2005-03-14 08:58:33 51°14.896 2°54.552 4.7 262 4.3 101310 84
2005-03-14 08:58:38 51°14.905 2°54.545 5.5 278 4.3 101310 84
2005-03-14 08:58:44 51°14.917 2°54.537 5.1 274 4.3 101310 84
2005-03-14 08:58:49 51°14.928 2°54.529 5 294 4.3 101310 84
2005-03-14 08:58:53 51°14.939 2°54.522 4.7 291 4.3 101300 84
2005-03-14 08:58:59 51°14.953 2°54.513 4.2 298 4.3 101300 84
2005-03-14 08:59:03 51°14.963 2°54.507 4.2 304 4.3 101300 84
2005-03-14 08:59:09 51°14.98 2°54.496 4.8 304 4.3 101300 84
2005-03-14 08:59:14 51°14.994 2°54.487 4.5 300 4.3 101300 84
2005-03-14 08:59:19 51°15.008 2°54.478 4.6 305 4.3 101300 84
2005-03-14 08:59:23 51°15.019 2°54.471 4.9 305 4.3 101300 84
2005-03-14 08:59:29 51°15.037 2°54.459 4.8 313 4.3 101300 84
2005-03-14 08:59:33 51°15.05 2°54.45 5 309 4.3 101300 84
2005-03-14 08:59:38 51°15.064 2°54.44 5.4 306 4.3 101300 84
2005-03-14 08:59:43 51°15.079 2°54.428 5.9 310 4.3 101300 84
2005-03-14 08:59:49 51°15.095 2°54.415 6.1 314 4.3 101300 84
2005-03-14 08:59:53 51°15.108 2°54.404 5.9 311 4.3 101300 84
2005-03-14 08:59:58 51°15.122 2°54.391 6.2 310 4.3 101300 84
2005-03-14 09:00:03 51°15.137 2°54.377 5.9 309 4.3 101300 84
2005-03-14 09:00:09 51°15.153 2°54.363 6.4 309 4.3 101300 84
2005-03-14 09:00:14 51°15.168 2°54.349 5.8 309 4.3 101300 84
2005-03-14 09:00:19 51°15.182 2°54.336 6.3 309 4.3 101300 84
2005-03-14 09:00:23 51°15.196 2°54.324 6.1 308 4.3 101300 84
2005-03-14 09:00:29 51°15.213 2°54.311 5.8 227 4.3 101300 84
2005-03-14 09:00:33 51°15.226 2°54.3 5.6 315 4.3 101300 84
2005-03-14 09:00:38 51°15.242 2°54.289 5.7 311 4.3 101300 84
2005-03-14 09:00:43 51°15.258 2°54.277 6.4 315 4.3 101300 84
2005-03-14 09:00:49 51°15.276 2°54.263 5.7 314 4.3 101300 84
2005-03-14 09:00:53 51°15.289 2°54.254 5 316 4.3 101300 84
2005-03-14 09:00:58 51°15.305 2°54.241 5.8 310 4.3 101300 84
2005-03-14 09:01:03 51°15.319 2°54.23 5.3 312 4.3 101300 84
2005-03-14 09:01:09 51°15.338 2°54.214 5.2 228 4.3 101300 84
2005-03-14 09:01:13 51°15.35 2°54.203 5.6 318 4.3 101300 84
2005-03-14 09:01:18 51°15.367 2°54.188 5.8 228 4.3 101300 84
2005-03-14 09:01:23 51°15.383 2°54.174 5.9 314 4.3 101300 84
2005-03-14 09:01:29 51°15.4 2°54.159 6.2 42 4.3 101300 84
2005-03-14 09:01:33 51°15.414 2°54.147 5.7 312 4.3 101300 84
2005-03-14 09:01:39 51°15.431 2°54.133 5.4 44 4.3 101300 84
2005-03-14 09:01:43 51°15.446 2°54.122 5.2 314 4.3 101300 84
2005-03-14 09:01:49 51°15.464 2°54.109 5.4 228 4.3 101300 84
2005-03-14 09:01:53 51°15.479 2°54.099 5.4 227 4.3 101300 84
2005-03-14 09:01:59 51°15.498 2°54.087 4.9 311 4.3 101300 84
2005-03-14 09:02:03 51°15.513 2°54.078 4.6 315 4.3 101300 84
2005-03-14 09:02:09 51°15.531 2°54.067 5.1 317 4.3 101300 84
2005-03-14 09:02:13 51°15.546 2°54.058 5.2 316 4.3 101300 84
2005-03-14 09:02:19 51°15.565 2°54.046 4.9 227 4.3 101300 84
2005-03-14 09:02:22 51°15.577 2°54.038 5.3 317 4.3 101300 84
2005-03-14 09:02:29 51°15.599 2°54.022 5.8 318 4.3 101300 84
2005-03-14 09:02:33 51°15.613 2°54.01 5.7 317 4.3 101300 85
2005-03-14 09:02:39 51°15.631 2°53.994 5.9 317 4.3 101300 85
2005-03-14 09:02:43 51°15.644 2°53.982 5.6 315 4.3 101300 85
2005-03-14 09:02:49 51°15.663 2°53.964 5.6 315 4.3 101300 85
2005-03-14 09:02:54 51°15.679 2°53.95 5.9 42 4.3 101300 85
2005-03-14 09:02:59 51°15.696 2°53.935 5.6 321 4.3 101300 85
2005-03-14 09:03:03 51°15.709 2°53.924 5.4 320 4.2 101300 85
2005-03-14 09:03:09 51°15.729 2°53.908 5.3 323 4.2 101300 85
2005-03-14 09:03:13 51°15.743 2°53.895 5.2 319 4.3 101300 85
2005-03-14 09:03:19 51°15.762 2°53.881 5.1 316 4.3 101300 85
2005-03-14 09:03:23 51°15.777 2°53.869 5.7 319 4.3 101300 85
2005-03-14 09:03:28 51°15.793 2°53.856 5.2 321 4.3 101300 85
2005-03-14 09:03:34 51°15.812 2°53.841 5.5 319 4.3 101300 85
2005-03-14 09:03:39 51°15.828 2°53.828 5.9 319 4.3 101300 85
2005-03-14 09:03:44 51°15.844 2°53.814 5.6 317 4.3 101300 85
2005-03-14 09:03:49 51°15.861 2°53.799 5.5 39 4.3 101300 85
2005-03-14 09:03:53 51°15.876 2°53.786 5.2 319 4.2 101300 85
2005-03-14 09:03:58 51°15.892 2°53.772 6 319 4.2 101300 85
2005-03-14 09:04:03 51°15.906 2°53.758 5.8 320 4.3 101300 85
2005-03-14 09:04:09 51°15.926 2°53.741 5.9 318 4.3 101300 85
2005-03-14 09:04:13 51°15.94 2°53.727 5.7 316 4.2 101300 85
2005-03-14 09:04:18 51°15.957 2°53.712 5.5 42 4.2 101300 85
2005-03-14 09:04:23 51°15.971 2°53.698 5.2 42 4.2 101300 85
2005-03-14 09:04:29 51°15.992 2°53.678 5.6 318 4.2 101300 85
2005-03-14 09:04:33 51°16.004 2°53.665 6.1 315 4.2 101300 85
2005-03-14 09:04:39 51°16.022 2°53.648 5.9 317 4.2 101300 85
2005-03-14 09:04:43 51°16.036 2°53.633 5.8 316 4.2 101300 85
2005-03-14 09:04:49 51°16.054 2°53.616 5.8 42 4.2 101300 85
2005-03-14 09:04:53 51°16.068 2°53.602 6.1 317 4.2 101300 85
2005-03-14 09:04:59 51°16.085 2°53.586 6 43 4.2 101300 85
2005-03-14 09:05:04 51°16.101 2°53.571 5.7 315 4.2 101290 85
2005-03-14 09:05:09 51°16.117 2°53.555 6.2 321 4.2 101290 85
2005-03-14 09:05:14 51°16.134 2°53.541 5.4 320 4.2 101300 85
2005-03-14 09:05:19 51°16.149 2°53.526 5.5 315 4.2 101300 85
2005-03-14 09:05:23 51°16.162 2°53.514 5.3 43 4.2 101290 85
2005-03-14 09:05:29 51°16.181 2°53.496 5.2 227 4.2 101290 85
2005-03-14 09:05:33 51°16.195 2°53.482 5.4 43 4.2 101290 85
2005-03-14 09:05:39 51°16.213 2°53.465 5.4 317 4.2 101290 85
2005-03-14 09:05:44 51°16.23 2°53.449 5.3 318 4.2 101300 86
2005-03-14 09:05:49 51°16.244 2°53.435 5.8 317 4.2 101300 86
2005-03-14 09:05:53 51°16.258 2°53.421 5.8 42 4.2 101300 86
2005-03-14 09:05:58 51°16.274 2°53.405 5.9 317 4.2 101300 86
2005-03-14 09:06:03 51°16.29 2°53.39 5.7 43 4.2 101300 86
2005-03-14 09:06:09 51°16.307 2°53.373 5.4 43 4.2 101300 86
2005-03-14 09:06:13 51°16.321 2°53.359 5.4 42 4.2 101300 86
2005-03-14 09:06:18 51°16.337 2°53.344 5.6 228 4.2 101300 86
2005-03-14 09:06:23 51°16.351 2°53.331 5.6 316 4.2 101300 86
2005-03-14 09:06:29 51°16.371 2°53.312 5.8 226 4.2 101300 86
2005-03-14 09:06:33 51°16.384 2°53.3 6 316 4.2 101300 86
2005-03-14 09:06:38 51°16.4 2°53.285 5.8 42 4.2 101300 86
2005-03-14 09:06:43 51°16.414 2°53.271 5.8 317 4.2 101300 86
2005-03-14 09:06:48 51°16.432 2°53.255 5.5 315 4.2 101300 86
2005-03-14 09:06:53 51°16.448 2°53.24 5.5 317 4.2 101290 86
2005-03-14 09:06:59 51°16.465 2°53.223 5.7 42 4.2 101290 86
2005-03-14 09:07:03 51°16.48 2°53.21 5.5 315 4.2 101300 86
2005-03-14 09:07:09 51°16.497 2°53.193 5.6 315 4.2 101300 86
2005-03-14 09:07:13 51°16.509 2°53.181 5.7 315 4.2 101300 86
2005-03-14 09:07:18 51°16.526 2°53.163 5.3 228 4.2 101300 86
2005-03-14 09:07:22 51°16.539 2°53.151 5.7 227 4.2 101300 86
2005-03-14 09:07:28 51°16.558 2°53.132 5.4 313 4.2 101300 86
2005-03-14 09:07:33 51°16.573 2°53.117 6.2 316 4.2 101300 86
2005-03-14 09:07:38 51°16.589 2°53.101 6.2 227 4.2 101300 86
2005-03-14 09:07:43 51°16.603 2°53.088 5.9 312 4.2 101290 86
2005-03-14 09:07:49 51°16.624 2°53.069 6 320 4.2 101290 86
2005-03-14 09:07:53 51°16.637 2°53.057 5.7 227 4.2 101300 86
2005-03-14 09:07:59 51°16.655 2°53.042 5.2 42 4.2 101300 86
2005-03-14 09:08:03 51°16.668 2°53.03 5.2 316 4.2 101290 86
2005-03-14 09:08:08 51°16.685 2°53.015 5.5 230 4.2 101290 86
2005-03-14 09:08:13 51°16.701 2°53.002 5.2 42 4.2 101300 86
2005-03-14 09:08:19 51°16.719 2°52.988 5.1 317 4.2 101300 86
2005-03-14 09:08:23 51°16.734 2°52.976 5 321 4.2 101300 87
2005-03-14 09:08:29 51°16.752 2°52.962 4.8 318 4.2 101300 87
2005-03-14 09:08:33 51°16.766 2°52.949 4.9 317 4.2 101300 87
2005-03-14 09:08:39 51°16.783 2°52.934 5 43 4.2 101300 87
2005-03-14 09:08:42 51°16.794 2°52.924 5.4 317 4.2 101300 87
2005-03-14 09:08:48 51°16.813 2°52.907 4.6 312 4.2 101300 87
2005-03-14 09:08:53 51°16.828 2°52.892 5.2 315 4.2 101300 87
2005-03-14 09:08:58 51°16.842 2°52.879 4.4 319 4.2 101300 87
2005-03-14 09:09:03 51°16.856 2°52.866 4.8 314 4.2 101300 87
2005-03-14 09:09:09 51°16.875 2°52.848 4.8 309 4.2 101300 87
2005-03-14 09:09:13 51°16.887 2°52.836 4.9 43 4.2 101300 87
2005-03-14 09:09:19 51°16.903 2°52.82 4.7 313 4.2 101300 87
2005-03-14 09:09:22 51°16.913 2°52.811 4.8 229 4.2 101300 87
2005-03-14 09:09:29 51°16.932 2°52.793 4.4 316 4.2 101300 87
2005-03-14 09:09:34 51°16.948 2°52.78 4.5 324 4.2 101310 87
2005-03-14 09:09:38 51°16.962 2°52.77 3.9 320 4.2 101310 87
2005-03-14 09:09:43 51°16.979 2°52.76 4.3 317 4.2 101300 87
2005-03-14 09:09:49 51°16.997 2°52.75 4.1 316 4.2 101300 87
2005-03-14 09:09:54 51°17.014 2°52.742 3.8 318 4.2 101300 87
2005-03-14 09:09:59 51°17.031 2°52.734 3.8 319 4.2 101300 87
2005-03-14 09:10:02 51°17.043 2°52.729 3.9 324 4.2 101300 87
2005-03-14 09:10:09 51°17.065 2°52.72 3.9 324 4.2 101300 87
2005-03-14 09:10:14 51°17.082 2°52.712 3.7 324 4.2 101300 87
2005-03-14 09:10:19 51°17.099 2°52.703 4.2 324 4.2 101300 87
2005-03-14 09:10:24 51°17.116 2°52.694 3.8 327 4.2 101300 87
2005-03-14 09:10:29 51°17.133 2°52.685 3.9 324 4.2 101300 87
2005-03-14 09:10:33 51°17.148 2°52.676 3.8 320 4.2 101300 87
2005-03-14 09:10:39 51°17.165 2°52.665 3.6 322 4.2 101300 87
2005-03-14 09:10:44 51°17.182 2°52.657 3.4 320 4.2 101300 87
2005-03-14 09:10:49 51°17.198 2°52.65 3.2 328 4.2 101300 87
2005-03-14 09:10:54 51°17.216 2°52.643 3.3 328 4.2 101300 87
2005-03-14 09:10:59 51°17.233 2°52.637 3 326 4.2 101300 87
2005-03-14 09:11:03 51°17.248 2°52.633 3.4 327 4.2 101300 87
2005-03-14 09:11:09 51°17.269 2°52.628 3.4 330 4.2 101300 87
2005-03-14 09:11:14 51°17.284 2°52.624 3.2 332 4.2 101310 87
2005-03-14 09:11:19 51°17.301 2°52.62 3.5 338 4.2 101310 87
2005-03-14 09:11:23 51°17.317 2°52.617 3.1 332 4.2 101300 87
2005-03-14 09:11:29 51°17.337 2°52.611 3.4 338 4.2 101300 87
2005-03-14 09:11:34 51°17.353 2°52.607 3.8 332 4.2 101300 87
2005-03-14 09:11:39 51°17.37 2°52.601 3.8 332 4.2 101300 87
2005-03-14 09:11:43 51°17.386 2°52.595 3.6 332 4.2 101300 87
2005-03-14 09:11:48 51°17.403 2°52.588 3.9 332 4.2 101300 87
2005-03-14 09:11:53 51°17.42 2°52.582 3.6 333 4.2 101310 88
2005-03-14 09:11:59 51°17.439 2°52.574 3.6 336 4.2 101310 88
2005-03-14 09:12:03 51°17.454 2°52.568 4.1 335 4.2 101300 88
2005-03-14 09:12:09 51°17.473 2°52.562 3.8 335 4.2 101300 88
2005-03-14 09:12:13 51°17.489 2°52.557 3.7 334 4.2 101310 88
2005-03-14 09:12:19 51°17.508 2°52.551 4.1 333 4.2 101310 88
2005-03-14 09:12:22 51°17.52 2°52.548 3.3 331 4.2 101300 88
2005-03-14 09:12:29 51°17.543 2°52.541 3.8 327 4.2 101300 88
2005-03-14 09:12:34 51°17.561 2°52.536 3.6 333 4.2 101300 88
2005-03-14 09:12:39 51°17.578 2°52.53 3.6 329 4.2 101300 88
2005-03-14 09:12:42 51°17.59 2°52.527 3.9 337 4.2 101300 88
2005-03-14 09:12:49 51°17.612 2°52.518 3.7 330 4.2 101300 88
2005-03-14 09:12:53 51°17.628 2°52.512 3.6 329 4.2 101310 88
2005-03-14 09:12:58 51°17.645 2°52.506 3.9 328 4.2 101310 88
2005-03-14 09:13:03 51°17.661 2°52.5 3.6 331 4.2 101300 88
2005-03-14 09:13:09 51°17.683 2°52.492 3.4 324 4.2 101300 88
2005-03-14 09:13:13 51°17.697 2°52.486 4.3 329 4.2 101300 88
2005-03-14 09:13:19 51°17.716 2°52.48 4.1 328 4.2 101300 88
2005-03-14 09:13:24 51°17.733 2°52.474 3.7 328 4.2 101300 88
2005-03-14 09:13:29 51°17.75 2°52.469 3.8 330 4.2 101300 88
2005-03-14 09:13:34 51°17.767 2°52.463 4.1 333 4.2 101310 88
2005-03-14 09:13:38 51°17.783 2°52.458 3.4 329 4.2 101310 88
2005-03-14 09:13:44 51°17.802 2°52.452 3.8 334 4.2 101300 88
2005-03-14 09:13:49 51°17.819 2°52.446 4.1 325 4.2 101300 88
2005-03-14 09:13:54 51°17.836 2°52.439 4.3 328 4.2 101300 88
2005-03-14 09:13:57 51°17.848 2°52.434 3.6 333 4.2 101300 88
2005-03-14 09:14:03 51°17.867 2°52.427 4 326 4.2 101300 88
2005-03-14 09:14:09 51°17.888 2°52.421 3.9 339 4.2 101300 88
2005-03-14 09:14:13 51°17.903 2°52.417 3.7 327 4.2 101300 88
2005-03-14 09:14:18 51°17.921 2°52.414 3.2 329 4.2 101300 88
2005-03-14 09:14:23 51°17.936 2°52.41 3.7 326 4.2 101300 88
2005-03-14 09:14:29 51°17.958 2°52.408 3.3 330 4.2 101300 88
2005-03-14 09:14:33 51°17.973 2°52.407 3.2 334 4.2 101300 88
2005-03-14 09:14:38 51°17.99 2°52.407 2.4 331 4.2 101300 88
2005-03-14 09:14:43 51°18.006 2°52.407 2.5 335 4.2 101300 88
2005-03-14 09:14:49 51°18.027 2°52.409 2.9 339 4.2 101300 88
2005-03-14 09:14:53 51°18.042 2°52.41 2.7 343 4.2 101300 88
2005-03-14 09:14:58 51°18.06 2°52.413 2.7 342 4.2 101300 88
2005-03-14 09:15:03 51°18.076 2°52.415 2.9 337 4.2 101300 88
2005-03-14 09:15:09 51°18.096 2°52.418 2.9 342 4.2 101300 88
2005-03-14 09:15:13 51°18.112 2°52.419 2.9 341 4.2 101300 88
2005-03-14 09:15:19 51°18.131 2°52.424 3.4 346 4.2 101300 88
2005-03-14 09:15:23 51°18.145 2°52.427 3.5 345 4.2 101300 88
2005-03-14 09:15:29 51°18.167 2°52.434 2.4 351 4.2 101300 88
2005-03-14 09:15:33 51°18.18 2°52.439 2.4 351 4.2 101300 88
2005-03-14 09:15:38 51°18.197 2°52.445 2.9 351 4.2 101300 88
2005-03-14 09:15:43 51°18.214 2°52.452 2.1 347 4.2 101300 88
2005-03-14 09:15:49 51°18.232 2°52.459 2.7 355 4.2 101300 88
2005-03-14 09:15:54 51°18.249 2°52.465 2.6 353 4.2 101300 88
2005-03-14 09:15:59 51°18.266 2°52.471 2.8 352 4.2 101300 88
2005-03-14 09:16:03 51°18.281 2°52.477 2.7 357 4.2 101300 88
2005-03-14 09:16:09 51°18.299 2°52.486 2.5 7 4.2 101300 88
2005-03-14 09:16:14 51°18.317 2°52.497 2.5 7 4.2 101300 88
2005-03-14 09:16:19 51°18.331 2°52.507 2.7 18 4.2 101300 88
2005-03-14 09:16:22 51°18.341 2°52.516 2.3 18 4.2 101300 88
2005-03-14 09:16:29 51°18.36 2°52.533 2.6 31 4.2 101300 88
2005-03-14 09:16:34 51°18.374 2°52.548 2.6 33 4.2 101300 88
2005-03-14 09:16:39 51°18.388 2°52.563 2.8 39 4.2 101300 88
2005-03-14 09:16:43 51°18.401 2°52.578 3.1 32 4.2 101300 88
2005-03-14 09:16:49 51°18.415 2°52.596 3.7 35 4.2 101300 88
2005-03-14 09:16:53 51°18.427 2°52.611 3.4 35 4.2 101300 89
2005-03-14 09:16:58 51°18.441 2°52.627 3.3 43 4.2 101300 89
2005-03-14 09:17:03 51°18.452 2°52.643 3.3 34 4.2 101300 88
2005-03-14 09:17:09 51°18.468 2°52.663 3.3 47 4.2 101300 88
2005-03-14 09:17:14 51°18.481 2°52.68 3.7 49 4.2 101300 88
2005-03-14 09:17:19 51°18.494 2°52.698 3.1 42 4.2 101300 88
2005-03-14 09:17:23 51°18.506 2°52.713 3 40 4.2 101300 88
2005-03-14 09:17:27 51°18.515 2°52.725 3.4 34 4.2 101300 88
2005-03-14 09:17:33 51°18.532 2°52.747 3.2 33 4.2 101300 88
2005-03-14 09:17:39 51°18.547 2°52.766 3.1 33 4.2 101300 88
2005-03-14 09:17:44 51°18.56 2°52.783 2.9 54 4.2 101300 88
2005-03-14 09:17:49 51°18.573 2°52.802 3.8 35 4.2 101300 88
2005-03-14 09:17:53 51°18.582 2°52.816 3.4 51 4.2 101300 89
2005-03-14 09:17:59 51°18.597 2°52.838 3.6 41 4.2 101300 89
2005-03-14 09:18:03 51°18.607 2°52.854 4.3 41 4.2 101300 89
2005-03-14 09:18:09 51°18.621 2°52.876 3.6 46 4.2 101300 89
2005-03-14 09:18:13 51°18.632 2°52.893 3.8 40 4.2 101300 89
2005-03-14 09:18:19 51°18.646 2°52.914 3.6 38 4.2 101300 89
2005-03-14 09:18:23 51°18.657 2°52.931 3.7 41 4.2 101300 89
2005-03-14 09:18:27 51°18.665 2°52.943 3.5 48 4.2 101300 89
2005-03-14 09:18:33 51°18.681 2°52.967 3.5 43 4.2 101300 89
2005-03-14 09:18:39 51°18.694 2°52.988 3.9 42 4.2 101300 89
2005-03-14 09:18:44 51°18.706 2°53.007 4.1 44 4.1 101300 89
2005-03-14 09:18:49 51°18.718 2°53.027 3.8 54 4.1 101300 89
2005-03-14 09:18:53 51°18.728 2°53.046 3.7 48 4.2 101290 89
2005-03-14 09:18:59 51°18.739 2°53.068 4.3 55 4.2 101290 89
2005-03-14 09:19:04 51°18.749 2°53.09 4.4 41 4.1 101300 89
2005-03-14 09:19:09 51°18.758 2°53.113 4.6 45 4.1 101300 89
2005-03-14 09:19:13 51°18.765 2°53.133 4.6 54 4.1 101300 89
2005-03-14 09:19:19 51°18.774 2°53.16 5.1 52 4.1 101300 89
2005-03-14 09:19:23 51°18.78 2°53.179 5.1 56 4.1 101290 89
2005-03-14 09:19:29 51°18.789 2°53.207 5.2 51 4.1 101290 89
2005-03-14 09:19:33 51°18.795 2°53.229 5.7 53 4.1 101290 89
2005-03-14 09:19:39 51°18.803 2°53.256 5.4 50 4.1 101290 89
2005-03-14 09:19:44 51°18.81 2°53.28 5.1 55 4.1 101290 89
2005-03-14 09:19:49 51°18.817 2°53.306 5.5 47 4.1 101290 89
2005-03-14 09:19:54 51°18.824 2°53.328 5.4 50 4.1 101290 89
2005-03-14 09:19:59 51°18.831 2°53.352 5.2 49 4.1 101290 89
2005-03-14 09:20:03 51°18.837 2°53.371 4.9 49 4.1 101300 89
2005-03-14 09:20:09 51°18.846 2°53.402 5.1 52 4.1 101300 89
2005-03-14 09:20:13 51°18.852 2°53.421 5.1 45 4.1 101300 89
2005-03-14 09:20:19 51°18.86 2°53.448 5 48 4.1 101300 89
2005-03-14 09:20:23 51°18.867 2°53.469 5.2 49 4.1 101300 89
2005-03-14 09:20:29 51°18.874 2°53.495 5 52 4.1 101300 89
2005-03-14 09:20:33 51°18.881 2°53.516 4.8 53 4.1 101290 89
2005-03-14 09:20:39 51°18.889 2°53.542 5.2 54 4.1 101290 89
2005-03-14 09:20:43 51°18.894 2°53.562 5.2 53 4.1 101290 90
2005-03-14 09:20:49 51°18.904 2°53.592 5.2 48 4.1 101290 90
2005-03-14 09:20:54 51°18.911 2°53.613 5.3 57 4.1 101300 90
2005-03-14 09:20:59 51°18.919 2°53.64 5.5 51 4.1 101300 90
2005-03-14 09:21:03 51°18.925 2°53.658 5 52 4 101290 90
2005-03-14 09:21:09 51°18.934 2°53.684 5 53 4 101290 90
2005-03-14 09:21:13 51°18.94 2°53.704 5 53 4 101300 90
2005-03-14 09:21:19 51°18.949 2°53.73 4.5 54 4 101300 90
2005-03-14 09:21:23 51°18.955 2°53.748 5 55 4 101290 90
2005-03-14 09:21:29 51°18.965 2°53.776 4.6 45 4 101290 90
2005-03-14 09:21:33 51°18.972 2°53.797 4.6 51 4 101300 90
2005-03-14 09:21:38 51°18.98 2°53.82 4.3 47 4 101300 90
2005-03-14 09:21:44 51°18.989 2°53.847 4.9 49 4 101290 90
2005-03-14 09:21:49 51°18.996 2°53.868 4.2 54 4 101290 90
2005-03-14 09:21:53 51°19.003 2°53.889 4.5 47 4 101290 90
2005-03-14 09:21:59 51°19.012 2°53.914 4.4 58 4 101290 90
2005-03-14 09:22:03 51°19.019 2°53.932 4.9 58 4 101300 90
2005-03-14 09:22:09 51°19.028 2°53.96 4.1 60 4 101300 90
2005-03-14 09:22:13 51°19.035 2°53.981 4.7 55 4 101300 90
2005-03-14 09:22:19 51°19.044 2°54.006 4.8 50 4 101300 90
2005-03-14 09:22:23 51°19.049 2°54.025 5.5 59 4 101290 90
2005-03-14 09:22:29 51°19.06 2°54.055 4.5 62 4 101290 90
2005-03-14 09:22:33 51°19.066 2°54.073 4.1 66 4 101290 90
2005-03-14 09:22:39 51°19.075 2°54.099 4.7 59 4 101290 90
2005-03-14 09:22:43 51°19.081 2°54.117 4.5 56 4 101290 90
2005-03-14 09:22:49 51°19.091 2°54.145 4.9 61 4 101290 90
2005-03-14 09:22:54 51°19.099 2°54.168 4.6 54 4 101300 90
2005-03-14 09:22:58 51°19.106 2°54.189 4.5 58 4 101300 90
2005-03-14 09:23:03 51°19.113 2°54.209 4.2 52 4 101300 90
2005-03-14 09:23:08 51°19.122 2°54.234 3.8 58 4 101300 90
2005-03-14 09:23:14 51°19.131 2°54.26 4.4 53 4 101290 91
2005-03-14 09:23:19 51°19.14 2°54.286 3.9 47 4 101290 91
2005-03-14 09:23:23 51°19.146 2°54.302 4 51 4 101290 91
2005-03-14 09:23:28 51°19.155 2°54.327 4.3 60 4 101290 91
2005-03-14 09:23:33 51°19.164 2°54.35 4.3 53 3.9 101290 91
2005-03-14 09:23:38 51°19.172 2°54.373 4.5 55 3.9 101290 91
2005-03-14 09:23:43 51°19.179 2°54.394 4.4 50 3.9 101300 91
2005-03-14 09:23:49 51°19.19 2°54.424 4.1 53 3.9 101300 91
2005-03-14 09:23:53 51°19.197 2°54.443 4.6 55 3.9 101290 91
2005-03-14 09:23:59 51°19.206 2°54.469 4.5 57 3.9 101290 91
2005-03-14 09:24:04 51°19.214 2°54.492 4.4 44 3.9 101290 91
2005-03-14 09:24:09 51°19.222 2°54.515 4 59 3.9 101290 91
2005-03-14 09:24:13 51°19.23 2°54.536 4.3 48 3.9 101290 91
2005-03-14 09:24:18 51°19.238 2°54.559 4.2 57 3.9 101290 91
2005-03-14 09:24:23 51°19.247 2°54.583 4.3 49 4 101300 91
2005-03-14 09:24:29 51°19.256 2°54.608 4 56 4 101300 91
2005-03-14 09:24:33 51°19.264 2°54.628 4.2 55 3.9 101300 91
2005-03-14 09:24:38 51°19.273 2°54.651 4.4 55 3.9 101300 91
2005-03-14 09:24:43 51°19.281 2°54.672 4.8 52 3.9 101300 91
2005-03-14 09:24:49 51°19.291 2°54.702 4.5 53 3.9 101300 91
2005-03-14 09:24:53 51°19.298 2°54.721 4.5 53 3.9 101300 91
2005-03-14 09:24:59 51°19.308 2°54.747 4.1 54 3.9 101300 91
2005-03-14 09:25:04 51°19.316 2°54.771 2.6 55 3.9 101300 91
2005-03-14 09:25:09 51°19.326 2°54.796 4.4 57 3.9 101300 91
2005-03-14 09:25:13 51°19.333 2°54.815 4.5 53 3.9 101300 91
2005-03-14 09:25:19 51°19.342 2°54.84 4 53 3.9 101300 91
2005-03-14 09:25:24 51°19.351 2°54.864 4.7 54 3.9 101290 91
2005-03-14 09:25:29 51°19.359 2°54.887 4.2 55 3.9 101290 91
2005-03-14 09:25:34 51°19.368 2°54.91 4.8 51 3.9 101290 91
2005-03-14 09:25:39 51°19.377 2°54.933 4.6 56 3.9 101290 91
2005-03-14 09:25:43 51°19.383 2°54.952 4.3 63 3.9 101300 91
2005-03-14 09:25:49 51°19.395 2°54.982 4.9 59 3.9 101300 91
2005-03-14 09:25:54 51°19.402 2°55.003 4.3 54 3.9 101300 91
2005-03-14 09:25:59 51°19.411 2°55.026 4.9 59 3.9 101300 91
2005-03-14 09:26:03 51°19.419 2°55.047 4.8 58 3.9 101290 91
2005-03-14 09:26:09 51°19.428 2°55.074 4.4 55 3.9 101290 91
2005-03-14 09:26:13 51°19.435 2°55.092 4.5 55 3.9 101290 91
2005-03-14 09:26:19 51°19.444 2°55.118 4.5 60 3.9 101290 91
2005-03-14 09:26:23 51°19.452 2°55.139 4.5 53 3.9 101290 91
2005-03-14 09:26:29 51°19.46 2°55.164 4.7 60 3.9 101290 91
2005-03-14 09:26:33 51°19.468 2°55.184 4.1 46 3.9 101300 91
2005-03-14 09:26:38 51°19.476 2°55.207 4.2 59 3.9 101300 91
2005-03-14 09:26:43 51°19.484 2°55.228 4.8 56 3.9 101300 91
2005-03-14 09:26:48 51°19.493 2°55.253 4.3 44 3.9 101300 91
2005-03-14 09:26:53 51°19.501 2°55.276 4.2 54 3.9 101290 91
2005-03-14 09:26:59 51°19.51 2°55.301 4.7 52 3.9 101290 91
2005-03-14 09:27:03 51°19.517 2°55.319 4.6 55 3.9 101290 91
2005-03-14 09:27:09 51°19.527 2°55.346 4.4 50 3.9 101290 91
2005-03-14 09:27:13 51°19.534 2°55.367 4.5 55 3.9 101300 91
2005-03-14 09:27:19 51°19.543 2°55.391 4.5 54 3.9 101300 91
2005-03-14 09:27:24 51°19.551 2°55.414 4.7 55 3.9 101290 91
2005-03-14 09:27:29 51°19.56 2°55.436 4.1 65 3.9 101290 91
2005-03-14 09:27:34 51°19.568 2°55.459 4.8 58 3.9 101290 91
2005-03-14 09:27:38 51°19.575 2°55.479 4.7 49 3.9 101290 91
2005-03-14 09:27:43 51°19.583 2°55.499 4.2 54 3.9 101290 91
2005-03-14 09:27:48 51°19.592 2°55.524 4.7 57 3.9 101290 91
2005-03-14 09:27:53 51°19.6 2°55.547 4 52 3.9 101290 91
2005-03-14 09:27:59 51°19.609 2°55.572 4.3 50 3.9 101290 91
2005-03-14 09:28:04 51°19.617 2°55.594 4.4 56 3.9 101290 92
2005-03-14 09:28:09 51°19.625 2°55.616 4.3 53 3.9 101290 92
2005-03-14 09:28:13 51°19.633 2°55.636 4.8 49 3.9 101290 92
2005-03-14 09:28:19 51°19.641 2°55.661 4.1 56 3.9 101290 92
2005-03-14 09:28:23 51°19.648 2°55.679 4.4 58 3.9 101290 92
2005-03-14 09:28:29 51°19.659 2°55.708 4 55 3.9 101290 92
2005-03-14 09:28:34 51°19.667 2°55.728 4.2 62 3.9 101300 92
2005-03-14 09:28:39 51°19.675 2°55.75 4.3 55 3.9 101300 92
2005-03-14 09:28:44 51°19.683 2°55.773 4.4 58 3.9 101290 92
2005-03-14 09:28:49 51°19.692 2°55.795 4.2 55 3.9 101290 92
2005-03-14 09:28:54 51°19.7 2°55.817 4.1 57 3.9 101290 92
2005-03-14 09:28:59 51°19.708 2°55.839 4.2 54 3.9 101290 92
2005-03-14 09:29:03 51°19.716 2°55.859 4.3 51 3.9 101290 92
2005-03-14 09:29:09 51°19.726 2°55.885 4.2 56 3.9 101290 92
2005-03-14 09:29:14 51°19.733 2°55.906 4 57 3.9 101290 92
2005-03-14 09:29:19 51°19.742 2°55.928 4.8 57 3.9 101290 92
2005-03-14 09:29:23 51°19.749 2°55.948 4.8 56 3.9 101290 92
2005-03-14 09:29:29 51°19.757 2°55.973 4.8 61 3.9 101290 92
2005-03-14 09:29:33 51°19.764 2°55.993 4.6 57 3.9 101280 92
2005-03-14 09:29:38 51°19.773 2°56.015 4.6 58 3.9 101280 92
2005-03-14 09:29:43 51°19.78 2°56.036 4.9 59 3.9 101290 92
2005-03-14 09:29:49 51°19.79 2°56.063 4.6 56 3.9 101290 92
2005-03-14 09:29:53 51°19.797 2°56.082 4.5 56 3.9 101290 92
2005-03-14 09:29:59 51°19.806 2°56.106 4.6 56 3.9 101290 92
2005-03-14 09:30:03 51°19.814 2°56.126 4 55 3.9 101280 92
2005-03-14 09:30:09 51°19.826 2°56.146 2.9 47 3.9 101280 92
2005-03-14 09:30:14 51°19.837 2°56.164 3.1 49 3.9 101290 92
2005-03-14 09:30:19 51°19.849 2°56.181 2.6 50 3.9 101290 92
2005-03-14 09:30:23 51°19.859 2°56.193 2.5 45 3.9 101290 92
2005-03-14 09:30:29 51°19.875 2°56.211 2.7 36 3.9 101290 92
2005-03-14 09:30:33 51°19.886 2°56.225 2.9 36 3.9 101280 92
2005-03-14 09:30:39 51°19.901 2°56.241 2.2 33 3.9 101280 92
2005-03-14 09:30:43 51°19.912 2°56.252 2.3 46 3.9 101290 92
2005-03-14 09:30:49 51°19.928 2°56.269 1.9 42 3.9 101290 92
2005-03-14 09:30:53 51°19.94 2°56.282 2.4 48 3.9 101290 92
2005-03-14 09:30:59 51°19.955 2°56.297 2.4 45 3.9 101290 92
2005-03-14 09:31:04 51°19.97 2°56.313 2.5 29 3.9 101290 92
2005-03-14 09:31:09 51°19.982 2°56.325 2.2 46 3.9 101290 92
2005-03-14 09:31:13 51°19.994 2°56.338 2.3 40 3.9 101290 92
2005-03-14 09:31:19 51°20.009 2°56.354 2.3 39 3.9 101290 92
2005-03-14 09:31:23 51°20.022 2°56.367 2.3 39 3.9 101290 92
2005-03-14 09:31:29 51°20.036 2°56.383 2.2 35 3.9 101290 92
2005-03-14 09:31:33 51°20.049 2°56.395 1.9 44 3.9 101290 92
2005-03-14 09:31:39 51°20.063 2°56.411 2.8 42 3.9 101290 92
2005-03-14 09:31:42 51°20.073 2°56.42 2.8 43 3.9 101290 92
2005-03-14 09:31:48 51°20.089 2°56.438 2.2 50 3.9 101290 92
2005-03-14 09:31:53 51°20.102 2°56.45 2.1 49 3.9 101290 92
2005-03-14 09:31:58 51°20.115 2°56.465 2.8 39 3.9 101290 92
2005-03-14 09:32:04 51°20.132 2°56.483 2.7 48 3.9 101300 92
2005-03-14 09:32:09 51°20.145 2°56.497 2.2 48 3.9 101300 92
2005-03-14 09:32:13 51°20.157 2°56.511 2.3 54 3.9 101290 92
2005-03-14 09:32:19 51°20.172 2°56.527 2.3 48 3.9 101290 92
2005-03-14 09:32:23 51°20.183 2°56.539 2.6 47 3.9 101290 92
2005-03-14 09:32:29 51°20.199 2°56.556 2.2 40 3.9 101290 92
2005-03-14 09:32:33 51°20.21 2°56.569 3 33 3.9 101290 92
2005-03-14 09:32:39 51°20.225 2°56.585 2.5 57 3.9 101290 92
2005-03-14 09:32:43 51°20.237 2°56.598 2.2 47 3.9 101290 92
2005-03-14 09:32:49 51°20.252 2°56.613 2.3 49 3.9 101290 92
2005-03-14 09:32:53 51°20.264 2°56.626 2.6 40 3.9 101290 92
2005-03-14 09:32:59 51°20.279 2°56.642 2.1 55 3.9 101290 92
2005-03-14 09:33:03 51°20.291 2°56.655 2.7 57 3.9 101290 92
2005-03-14 09:33:09 51°20.306 2°56.67 3 29 3.9 101290 92
2005-03-14 09:33:13 51°20.316 2°56.683 3 44 3.9 101290 92
2005-03-14 09:33:19 51°20.332 2°56.699 2.8 59 3.9 101290 92
2005-03-14 09:33:24 51°20.345 2°56.715 2.4 63 3.9 101280 92
2005-03-14 09:33:29 51°20.358 2°56.729 2.5 55 3.9 101280 92
2005-03-14 09:33:33 51°20.37 2°56.743 2.8 53 3.9 101290 92
2005-03-14 09:33:38 51°20.382 2°56.757 3 51 3.9 101290 92
2005-03-14 09:33:43 51°20.394 2°56.773 2.6 48 3.9 101290 92
2005-03-14 09:33:49 51°20.41 2°56.793 2.9 48 3.9 101290 92
2005-03-14 09:33:53 51°20.42 2°56.806 3.2 45 3.9 101290 92
2005-03-14 09:33:59 51°20.435 2°56.823 3.1 54 3.9 101290 92
2005-03-14 09:34:03 51°20.446 2°56.838 3.2 45 3.9 101280 92
2005-03-14 09:34:09 51°20.46 2°56.855 2.9 49 3.9 101280 92
2005-03-14 09:34:13 51°20.472 2°56.868 3 53 3.9 101290 92
2005-03-14 09:34:19 51°20.486 2°56.885 2.4 55 3.9 101290 92
2005-03-14 09:34:24 51°20.498 2°56.901 3.1 40 3.9 101290 92
2005-03-14 09:34:29 51°20.511 2°56.916 2.5 52 3.9 101290 92
2005-03-14 09:34:34 51°20.524 2°56.932 2.3 60 3.9 101290 92
2005-03-14 09:34:39 51°20.537 2°56.948 2.7 64 3.9 101290 92
2005-03-14 09:34:43 51°20.548 2°56.962 2.6 56 4 101290 92
2005-03-14 09:34:49 51°20.562 2°56.979 2.7 52 4 101290 92
2005-03-14 09:34:54 51°20.575 2°56.995 2.8 53 3.9 101280 92
2005-03-14 09:34:59 51°20.588 2°57.01 2.7 65 3.9 101280 92
2005-03-14 09:35:03 51°20.598 2°57.022 2.6 56 3.9 101290 92
2005-03-14 09:35:09 51°20.614 2°57.041 2.4 66 3.9 101290 92
2005-03-14 09:35:13 51°20.624 2°57.053 2 71 4 101290 92
2005-03-14 09:35:19 51°20.64 2°57.071 2.6 52 4 101290 92
2005-03-14 09:35:23 51°20.65 2°57.084 3 59 3.9 101290 92
2005-03-14 09:35:29 51°20.666 2°57.102 2.8 58 3.9 101290 92
2005-03-14 09:35:33 51°20.677 2°57.116 2.9 55 4 101290 92
2005-03-14 09:35:38 51°20.69 2°57.132 2.4 61 4 101290 92
2005-03-14 09:35:43 51°20.701 2°57.146 2.5 62 3.9 101290 92
2005-03-14 09:35:48 51°20.715 2°57.163 2.4 55 3.9 101290 92
2005-03-14 09:35:53 51°20.728 2°57.178 2.2 58 3.9 101290 92
2005-03-14 09:35:59 51°20.743 2°57.195 2.5 56 3.9 101290 92
2005-03-14 09:36:03 51°20.753 2°57.207 2.6 61 3.9 101290 92
2005-03-14 09:36:09 51°20.769 2°57.226 2.4 61 3.9 101290 92
2005-03-14 09:36:14 51°20.781 2°57.242 2.7 65 3.9 101290 92
2005-03-14 09:36:18 51°20.793 2°57.255 2.5 54 3.9 101290 92
2005-03-14 09:36:23 51°20.806 2°57.271 2.7 52 3.9 101280 92
2005-03-14 09:36:29 51°20.82 2°57.288 2.6 50 3.9 101280 92
2005-03-14 09:36:34 51°20.834 2°57.303 2.5 60 3.9 101290 92
2005-03-14 09:36:38 51°20.845 2°57.316 2.2 66 3.9 101290 92
2005-03-14 09:36:44 51°20.86 2°57.333 2.2 61 3.9 101290 92
2005-03-14 09:36:47 51°20.868 2°57.342 2.8 64 3.9 101290 92
2005-03-14 09:36:54 51°20.885 2°57.364 2.7 60 3.9 101290 92
2005-03-14 09:36:59 51°20.898 2°57.379 2.5 60 3.9 101290 92
2005-03-14 09:37:03 51°20.909 2°57.392 1.8 68 4 101290 92
2005-03-14 09:37:09 51°20.926 2°57.412 2.4 53 4 101290 92
2005-03-14 09:37:13 51°20.935 2°57.423 2.7 69 4 101290 92
2005-03-14 09:37:19 51°20.95 2°57.442 3 63 4 101290 92
2005-03-14 09:37:23 51°20.961 2°57.458 2.9 68 4 101280 92
2005-03-14 09:37:29 51°20.975 2°57.476 3 68 4 101280 92
2005-03-14 09:37:33 51°20.986 2°57.49 2.6 76 4 101290 92
2005-03-14 09:37:39 51°21 2°57.508 2.7 64 4 101290 92
2005-03-14 09:37:44 51°21.012 2°57.525 2.8 57 4 101290 92
2005-03-14 09:37:49 51°21.024 2°57.541 2.1 76 4 101290 92
2005-03-14 09:37:53 51°21.034 2°57.554 3.1 60 4 101290 92
2005-03-14 09:37:59 51°21.049 2°57.573 3.1 58 4 101290 92
2005-03-14 09:38:03 51°21.059 2°57.587 2.8 55 4 101290 92
2005-03-14 09:38:09 51°21.075 2°57.608 2.9 62 4 101290 92
2005-03-14 09:38:13 51°21.085 2°57.621 2.6 60 4 101290 92
2005-03-14 09:38:19 51°21.099 2°57.639 2.9 60 4 101290 92
2005-03-14 09:38:24 51°21.111 2°57.656 2.9 55 4 101280 92
2005-03-14 09:38:29 51°21.125 2°57.673 2.6 78 4 101280 92
2005-03-14 09:38:33 51°21.135 2°57.687 2.9 67 4 101290 92
2005-03-14 09:38:39 51°21.149 2°57.705 2.7 66 4 101290 92
2005-03-14 09:38:43 51°21.16 2°57.72 2.9 57 4 101290 92
2005-03-14 09:38:49 51°21.175 2°57.739 3.1 58 4 101290 92
2005-03-14 09:38:53 51°21.185 2°57.752 3.5 61 4 101290 92
2005-03-14 09:38:59 51°21.199 2°57.77 2.8 60 4 101290 92
2005-03-14 09:39:03 51°21.209 2°57.783 2.9 59 4 101280 92
2005-03-14 09:39:08 51°21.223 2°57.801 3.4 39 4 101280 92
2005-03-14 09:39:14 51°21.238 2°57.822 3.3 55 4 101280 92
2005-03-14 09:39:19 51°21.249 2°57.837 2.2 69 4 101280 92
2005-03-14 09:39:23 51°21.259 2°57.851 2.1 75 4 101290 92
2005-03-14 09:39:29 51°21.275 2°57.872 2.5 54 4 101290 92
2005-03-14 09:39:33 51°21.285 2°57.885 2 54 4 101280 92
2005-03-14 09:39:39 51°21.299 2°57.904 2.9 52 4 101280 92
2005-03-14 09:39:43 51°21.309 2°57.917 2.9 50 4 101290 92
2005-03-14 09:39:49 51°21.324 2°57.937 2.4 57 4 101290 92
2005-03-14 09:39:53 51°21.334 2°57.953 2.3 67 4 101290 92
2005-03-14 09:39:59 51°21.348 2°57.972 2.6 63 4 101290 92
2005-03-14 09:40:04 51°21.361 2°57.988 2.3 62 4 101290 92
2005-03-14 09:40:09 51°21.373 2°58.005 2.9 49 4 101290 92
2005-03-14 09:40:13 51°21.385 2°58.02 2.7 54 4 101280 92
2005-03-14 09:40:19 51°21.399 2°58.038 2.5 69 4 101280 92
2005-03-14 09:40:23 51°21.41 2°58.054 2.6 68 4 101290 92
2005-03-14 09:40:29 51°21.423 2°58.073 2.2 65 4 101290 92
2005-03-14 09:40:33 51°21.435 2°58.089 2.8 72 4 101290 92
2005-03-14 09:40:39 51°21.448 2°58.109 3 74 4 101290 92
2005-03-14 09:40:43 51°21.457 2°58.123 3.1 75 4 101290 92
2005-03-14 09:40:49 51°21.473 2°58.147 3.3 74 4 101290 92
2005-03-14 09:40:53 51°21.483 2°58.161 3.6 65 4 101280 92
2005-03-14 09:40:59 51°21.496 2°58.182 3.1 56 4 101280 92
2005-03-14 09:41:03 51°21.507 2°58.199 3 60 4 101280 92
2005-03-14 09:41:09 51°21.519 2°58.219 2.8 74 4 101280 92
2005-03-14 09:41:14 51°21.531 2°58.238 2.7 62 4 101290 92
2005-03-14 09:41:18 51°21.542 2°58.254 3 66 4 101290 92
2005-03-14 09:41:24 51°21.555 2°58.275 3.2 70 4 101280 92
2005-03-14 09:41:29 51°21.567 2°58.294 2.8 74 4 101280 92
2005-03-14 09:41:33 51°21.577 2°58.31 2.9 72 4 101280 92
2005-03-14 09:41:38 51°21.589 2°58.329 3.2 54 4 101280 92
2005-03-14 09:41:43 51°21.601 2°58.349 2.9 62 4 101290 92
2005-03-14 09:41:49 51°21.615 2°58.371 3.5 49 4 101290 92
2005-03-14 09:41:54 51°21.626 2°58.388 3.4 64 4 101290 92
2005-03-14 09:41:59 51°21.638 2°58.407 2.5 81 4 101290 92
2005-03-14 09:42:03 51°21.649 2°58.424 3.1 69 4 101290 92
2005-03-14 09:42:09 51°21.664 2°58.446 2.8 58 4 101290 92
2005-03-14 09:42:13 51°21.673 2°58.461 3.5 62 4 101290 92
2005-03-14 09:42:19 51°21.687 2°58.481 3 62 4 101290 92
2005-03-14 09:42:23 51°21.697 2°58.496 3.8 56 4 101290 92
2005-03-14 09:42:29 51°21.711 2°58.518 3.2 64 4 101290 92
2005-03-14 09:42:34 51°21.724 2°58.536 3.3 59 4 101290 92
2005-03-14 09:42:39 51°21.736 2°58.554 2.7 63 4 101290 92
2005-03-14 09:42:43 51°21.746 2°58.569 3.3 61 4 101290 92
2005-03-14 09:42:49 51°21.761 2°58.593 3.1 65 4 101290 92
2005-03-14 09:42:53 51°21.771 2°58.608 2.9 65 4 101290 92
2005-03-14 09:42:58 51°21.783 2°58.627 3.8 56 4 101290 92
2005-03-14 09:43:03 51°21.795 2°58.647 3.7 54 4 101290 92
2005-03-14 09:43:09 51°21.807 2°58.668 3.2 65 4 101290 92
2005-03-14 09:43:14 51°21.819 2°58.687 3.1 73 4 101290 92
2005-03-14 09:43:19 51°21.831 2°58.706 3.1 63 4 101290 92
2005-03-14 09:43:23 51°21.842 2°58.723 3.1 74 4 101290 92
2005-03-14 09:43:28 51°21.853 2°58.742 3 63 4 101290 92
2005-03-14 09:43:33 51°21.865 2°58.761 3.7 58 4 101290 92
2005-03-14 09:43:39 51°21.879 2°58.781 3 65 4 101290 92
2005-03-14 09:43:42 51°21.887 2°58.794 3.2 65 4 101290 92
2005-03-14 09:43:48 51°21.901 2°58.816 3.7 62 4 101290 92
2005-03-14 09:43:53 51°21.914 2°58.835 3.2 57 4 101290 92
2005-03-14 09:43:59 51°21.927 2°58.855 3 68 4 101290 92
2005-03-14 09:44:03 51°21.938 2°58.872 2.6 68 4 101290 92
2005-03-14 09:44:09 51°21.951 2°58.892 3.1 53 4 101290 92
2005-03-14 09:44:14 51°21.963 2°58.911 2.9 69 4 101280 92
2005-03-14 09:44:19 51°21.974 2°58.929 3.8 58 4 101280 92
2005-03-14 09:44:23 51°21.985 2°58.946 3.7 54 4 101290 92
2005-03-14 09:44:29 51°21.998 2°58.967 3.2 57 4 101290 92
2005-03-14 09:44:33 51°22.009 2°58.983 3 76 4 101290 92
2005-03-14 09:44:38 51°22.021 2°59.002 3.9 54 4 101290 92
2005-03-14 09:44:44 51°22.034 2°59.023 3.4 61 4 101290 92
2005-03-14 09:44:49 51°22.046 2°59.041 3.4 61 4 101290 92
2005-03-14 09:44:53 51°22.057 2°59.058 3.5 69 4 101280 92
2005-03-14 09:44:58 51°22.069 2°59.076 3.1 68 4 101280 92
2005-03-14 09:45:03 51°22.081 2°59.095 3.8 63 4 101290 92
2005-03-14 09:45:09 51°22.094 2°59.115 3.1 51 4 101290 92
2005-03-14 09:45:14 51°22.106 2°59.133 3.4 64 4 101290 92
2005-03-14 09:45:19 51°22.117 2°59.153 4 61 4 101290 92
2005-03-14 09:45:23 51°22.128 2°59.169 4.1 56 4 101290 92
2005-03-14 09:45:29 51°22.142 2°59.192 2.6 78 4 101290 92
2005-03-14 09:45:33 51°22.151 2°59.206 2.5 63 4 101290 92
2005-03-14 09:45:39 51°22.164 2°59.227 3.7 64 4 101290 92
2005-03-14 09:45:43 51°22.175 2°59.244 3.6 66 4 101290 92
2005-03-14 09:45:49 51°22.188 2°59.264 2.8 76 4 101290 92
2005-03-14 09:45:53 51°22.199 2°59.28 2.9 76 4 101280 92
2005-03-14 09:45:59 51°22.212 2°59.301 3.3 63 4 101280 92
2005-03-14 09:46:03 51°22.222 2°59.318 3.9 61 4 101290 92
2005-03-14 09:46:09 51°22.235 2°59.337 2.9 75 4 101290 92
2005-03-14 09:46:14 51°22.247 2°59.356 3.6 57 4 101290 92
2005-03-14 09:46:19 51°22.258 2°59.375 2.8 75 4 101290 92
2005-03-14 09:46:24 51°22.27 2°59.394 3 60 4 101290 92
2005-03-14 09:46:29 51°22.281 2°59.412 3.8 58 4 101290 92
2005-03-14 09:46:33 51°22.292 2°59.429 3.5 81 4 101290 92
2005-03-14 09:46:39 51°22.305 2°59.449 3.6 62 4 101290 92
2005-03-14 09:46:43 51°22.315 2°59.466 3.5 57 4 101290 92
2005-03-14 09:46:49 51°22.329 2°59.486 3.5 58 4 101290 92
2005-03-14 09:46:54 51°22.34 2°59.505 3.3 61 4 101290 92
2005-03-14 09:46:59 51°22.352 2°59.523 3.4 74 4 101290 92
2005-03-14 09:47:03 51°22.362 2°59.54 3 62 4 101300 92
2005-03-14 09:47:09 51°22.376 2°59.562 2.9 74 4 101300 92
2005-03-14 09:47:13 51°22.386 2°59.576 3 63 4 101290 92
2005-03-14 09:47:19 51°22.399 2°59.596 2.6 77 4 101290 92
2005-03-14 09:47:24 51°22.41 2°59.615 3.2 64 4 101290 92
2005-03-14 09:47:29 51°22.422 2°59.633 3.6 55 4 101290 92
2005-03-14 09:47:33 51°22.432 2°59.649 3.1 65 4 101300 92
2005-03-14 09:47:39 51°22.445 2°59.67 3.2 67 4 101300 92
2005-03-14 09:47:44 51°22.457 2°59.688 2.8 67 4 101290 92
2005-03-14 09:47:49 51°22.469 2°59.706 3 74 4 101290 92
2005-03-14 09:47:54 51°22.481 2°59.724 3 60 4 101290 92
2005-03-14 09:47:58 51°22.491 2°59.741 2.5 75 4 101290 92
2005-03-14 09:48:03 51°22.503 2°59.759 2.6 70 4 101300 92
2005-03-14 09:48:09 51°22.516 2°59.779 3.3 69 4 101300 92
2005-03-14 09:48:14 51°22.528 2°59.797 3.6 52 4 101290 92
2005-03-14 09:48:19 51°22.54 2°59.816 2.9 62 4 101290 92
2005-03-14 09:48:24 51°22.551 2°59.834 3.3 75 4.1 101290 92
2005-03-14 09:48:29 51°22.563 2°59.852 3.3 59 4.1 101290 92
2005-03-14 09:48:34 51°22.575 2°59.871 3 64 4 101290 92
2005-03-14 09:48:39 51°22.587 2°59.889 3.4 61 4 101290 92
2005-03-14 09:48:43 51°22.596 2°59.904 3.2 61 4.1 101290 92
2005-03-14 09:48:49 51°22.61 2°59.926 3.6 63 4.1 101290 92
2005-03-14 09:48:53 51°22.62 2°59.942 3.2 63 4.1 101300 92
2005-03-14 09:48:58 51°22.632 2°59.961 3.2 63 4.1 101300 92
2005-03-14 09:49:03 51°22.644 2°59.979 3.1 64 4.1 101300 92
2005-03-14 09:49:09 51°22.656 3°0 3 68 4.1 101300 92
2005-03-14 09:49:13 51°22.667 3°0.017 3.1 75 4.1 101300 92
2005-03-14 09:49:19 51°22.68 3°0.037 3.4 66 4.1 101300 92
2005-03-14 09:49:23 51°22.69 3°0.054 3.2 65 4.1 101300 92
2005-03-14 09:49:29 51°22.703 3°0.074 3.1 72 4.1 101300 92
2005-03-14 09:49:34 51°22.715 3°0.093 3.3 64 4.1 101290 92
2005-03-14 09:49:39 51°22.726 3°0.112 3.1 56 4.1 101290 92
2005-03-14 09:49:44 51°22.738 3°0.131 3.1 53 4.1 101290 91
2005-03-14 09:49:49 51°22.75 3°0.149 3.2 59 4.1 101290 91
2005-03-14 09:49:53 51°22.761 3°0.166 3 72 4.1 101300 91
2005-03-14 09:49:59 51°22.773 3°0.187 3.3 54 4.1 101300 91
2005-03-14 09:50:03 51°22.784 3°0.204 3.4 54 4.1 101290 91
2005-03-14 09:50:09 51°22.797 3°0.225 3.4 61 4.1 101290 91
2005-03-14 09:50:14 51°22.809 3°0.243 3.4 63 4.1 101290 91
2005-03-14 09:50:19 51°22.821 3°0.262 3.9 63 4.1 101290 91
2005-03-14 09:50:23 51°22.83 3°0.277 3.1 69 4.1 101290 91
2005-03-14 09:50:29 51°22.846 3°0.3 2.9 77 4.1 101290 91
2005-03-14 09:50:33 51°22.855 3°0.315 2.5 73 4.1 101300 91
2005-03-14 09:50:39 51°22.87 3°0.338 3 54 4.1 101300 91
2005-03-14 09:50:43 51°22.878 3°0.35 3.4 55 4.1 101290 91
2005-03-14 09:50:49 51°22.892 3°0.372 2.8 53 4.1 101290 91
2005-03-14 09:50:53 51°22.903 3°0.389 3.3 54 4.1 101300 91
2005-03-14 09:50:59 51°22.916 3°0.409 3.8 50 4.1 101300 91
2005-03-14 09:51:03 51°22.927 3°0.426 3.5 55 4.1 101290 91
2005-03-14 09:51:09 51°22.94 3°0.447 3.2 57 4.1 101290 91
2005-03-14 09:51:13 51°22.95 3°0.464 3.5 59 4.1 101290 91
2005-03-14 09:51:19 51°22.963 3°0.485 3.5 57 4.1 101290 91
2005-03-14 09:51:24 51°22.976 3°0.504 3.3 54 4.1 101290 91
2005-03-14 09:51:29 51°22.988 3°0.524 2.7 49 4.1 101290 91
2005-03-14 09:51:33 51°22.998 3°0.538 2.7 51 4.1 101300 91
2005-03-14 09:51:39 51°23.011 3°0.559 2.9 61 4.1 101300 91
2005-03-14 09:51:43 51°23.022 3°0.576 2.7 71 4.1 101300 91
2005-03-14 09:51:47 51°23.03 3°0.589 2.9 58 4.1 101300 91
2005-03-14 09:51:53 51°23.046 3°0.613 3 51 4.1 101300 91
2005-03-14 09:51:59 51°23.059 3°0.633 3.2 56 4.1 101300 91
2005-03-14 09:52:03 51°23.069 3°0.648 3.7 56 4.1 101290 91
2005-03-14 09:52:09 51°23.083 3°0.67 3.5 59 4.1 101290 91
2005-03-14 09:52:13 51°23.094 3°0.687 3.2 60 4.1 101300 91
2005-03-14 09:52:18 51°23.106 3°0.705 3.4 53 4.1 101300 91
2005-03-14 09:52:23 51°23.117 3°0.721 2.9 52 4.1 101300 91
2005-03-14 09:52:29 51°23.131 3°0.744 3 57 4.1 101300 91
2005-03-14 09:52:33 51°23.142 3°0.76 2.7 61 4.1 101290 91
2005-03-14 09:52:39 51°23.156 3°0.78 3 57 4.1 101290 91
2005-03-14 09:52:42 51°23.164 3°0.793 2.9 59 4.1 101300 91
2005-03-14 09:52:49 51°23.18 3°0.817 2.4 56 4.1 101300 91
2005-03-14 09:52:53 51°23.191 3°0.833 2.9 49 4.1 101290 91
2005-03-14 09:52:59 51°23.204 3°0.853 2.9 49 4.1 101290 91
2005-03-14 09:53:03 51°23.215 3°0.87 3.1 69 4.1 101300 91
2005-03-14 09:53:09 51°23.228 3°0.89 2.6 73 4.1 101300 91
2005-03-14 09:53:13 51°23.239 3°0.907 2.7 69 4.1 101300 91
2005-03-14 09:53:18 51°23.251 3°0.925 3.1 49 4.1 101300 91
2005-03-14 09:53:23 51°23.262 3°0.942 3.1 53 4.1 101290 91
2005-03-14 09:53:29 51°23.276 3°0.964 2.6 58 4.1 101290 91
2005-03-14 09:53:33 51°23.287 3°0.98 3 54 4.1 101300 91
2005-03-14 09:53:39 51°23.301 3°1.003 2.3 65 4.1 101300 91
2005-03-14 09:53:44 51°23.312 3°1.019 2.7 64 4.1 101290 91
2005-03-14 09:53:49 51°23.324 3°1.037 3 62 4.1 101290 91
2005-03-14 09:53:53 51°23.335 3°1.053 2.8 63 4.1 101290 91
2005-03-14 09:53:59 51°23.348 3°1.073 2.9 58 4.1 101290 91
2005-03-14 09:54:03 51°23.359 3°1.09 2.9 57 4.1 101300 91
2005-03-14 09:54:09 51°23.373 3°1.111 3 59 4.1 101300 91
2005-03-14 09:54:13 51°23.383 3°1.125 3 62 4.1 101290 91
2005-03-14 09:54:19 51°23.397 3°1.145 2.6 70 4.1 101290 91
2005-03-14 09:54:23 51°23.406 3°1.159 2.7 60 4.1 101300 91
2005-03-14 09:54:29 51°23.422 3°1.182 2.7 53 4.1 101300 91
2005-03-14 09:54:33 51°23.431 3°1.196 3.1 51 4.1 101300 91
2005-03-14 09:54:39 51°23.445 3°1.216 3 57 4.1 101300 91
2005-03-14 09:54:43 51°23.454 3°1.23 2.5 55 4.1 101300 91
2005-03-14 09:54:49 51°23.47 3°1.254 3 47 4.1 101300 91
2005-03-14 09:54:53 51°23.48 3°1.268 2.7 52 4.1 101290 91
2005-03-14 09:54:59 51°23.493 3°1.287 2.7 54 4.1 101290 91
2005-03-14 09:55:04 51°23.505 3°1.305 2.8 69 4.1 101290 91
2005-03-14 09:55:08 51°23.515 3°1.322 2.9 66 4.1 101290 91
2005-03-14 09:55:13 51°23.527 3°1.34 3 61 4.1 101300 91
2005-03-14 09:55:19 51°23.54 3°1.36 3.1 53 4.1 101300 91
2005-03-14 09:55:23 51°23.549 3°1.374 3.2 49 4.1 101300 91
2005-03-14 09:55:29 51°23.564 3°1.395 2.6 49 4.1 101300 91
2005-03-14 09:55:33 51°23.575 3°1.411 3.4 55 4.1 101290 91
2005-03-14 09:55:39 51°23.588 3°1.431 2.3 69 4.1 101290 91
2005-03-14 09:55:44 51°23.601 3°1.45 2.3 78 4.2 101290 91
2005-03-14 09:55:49 51°23.612 3°1.466 2.8 61 4.2 101290 91
2005-03-14 09:55:53 51°23.623 3°1.481 3.1 59 4.2 101290 91
2005-03-14 09:55:59 51°23.636 3°1.5 3.2 45 4.2 101290 91
2005-03-14 09:56:04 51°23.65 3°1.52 3.2 39 4.2 101290 91
2005-03-14 09:56:09 51°23.661 3°1.536 2.5 62 4.2 101290 91
2005-03-14 09:56:13 51°23.672 3°1.551 2.5 66 4.2 101300 91
2005-03-14 09:56:19 51°23.685 3°1.57 3.2 65 4.2 101300 91
2005-03-14 09:56:23 51°23.696 3°1.585 2.7 66 4.1 101290 91
2005-03-14 09:56:29 51°23.709 3°1.604 2.2 49 4.1 101290 91
2005-03-14 09:56:33 51°23.72 3°1.62 2.7 52 4.2 101290 91
2005-03-14 09:56:38 51°23.732 3°1.637 3 43 4.2 101290 91
2005-03-14 09:56:43 51°23.744 3°1.655 3.1 50 4.2 101290 91
2005-03-14 09:56:49 51°23.758 3°1.674 2.4 54 4.2 101290 91
2005-03-14 09:56:53 51°23.767 3°1.688 3.1 58 4.2 101290 91
2005-03-14 09:56:59 51°23.782 3°1.709 2.9 56 4.2 101290 91
2005-03-14 09:57:03 51°23.793 3°1.725 2.9 53 4.2 101300 91
2005-03-14 09:57:09 51°23.807 3°1.743 2.6 56 4.2 101300 91
2005-03-14 09:57:13 51°23.817 3°1.758 3.1 55 4.2 101290 91
2005-03-14 09:57:19 51°23.831 3°1.777 2.5 68 4.2 101290 91
2005-03-14 09:57:23 51°23.842 3°1.792 2.8 52 4.2 101290 91
2005-03-14 09:57:28 51°23.853 3°1.81 2.6 44 4.2 101290 91
2005-03-14 09:57:33 51°23.865 3°1.827 3 56 4.2 101300 91
2005-03-14 09:57:39 51°23.878 3°1.847 2.8 62 4.2 101300 91
2005-03-14 09:57:43 51°23.888 3°1.86 2.9 52 4.2 101290 91
2005-03-14 09:57:49 51°23.902 3°1.881 2.9 52 4.2 101290 91
2005-03-14 09:57:54 51°23.914 3°1.898 2.7 48 4.2 101290 91
2005-03-14 09:57:59 51°23.927 3°1.915 2.9 43 4.2 101290 91
2005-03-14 09:58:03 51°23.938 3°1.93 2.7 53 4.2 101290 91
2005-03-14 09:58:09 51°23.951 3°1.948 2.9 53 4.2 101290 91
2005-03-14 09:58:13 51°23.962 3°1.964 2.5 61 4.2 101300 91
2005-03-14 09:58:19 51°23.976 3°1.982 2.6 54 4.2 101300 91
2005-03-14 09:58:23 51°23.986 3°1.998 3.2 72 4.2 101290 91
2005-03-14 09:58:29 51°24.001 3°2.018 3.2 61 4.2 101290 91
2005-03-14 09:58:33 51°24.01 3°2.032 3.1 63 4.2 101290 91
2005-03-14 09:58:39 51°24.024 3°2.051 1.9 69 4.2 101290 91
2005-03-14 09:58:43 51°24.034 3°2.065 2.1 63 4.2 101290 91
2005-03-14 09:58:49 51°24.048 3°2.085 2.9 60 4.2 101290 91
2005-03-14 09:58:53 51°24.059 3°2.101 3.5 61 4.2 101290 91
2005-03-14 09:58:59 51°24.072 3°2.12 3.3 55 4.2 101290 91
2005-03-14 09:59:03 51°24.082 3°2.134 3.1 58 4.2 101300 91
2005-03-14 09:59:08 51°24.095 3°2.154 3.7 59 4.2 101300 91
2005-03-14 09:59:13 51°24.107 3°2.172 3.2 57 4.2 101300 91
2005-03-14 09:59:19 51°24.121 3°2.192 3 65 4.2 101300 91
2005-03-14 09:59:24 51°24.133 3°2.209 3.1 70 4.2 101290 91
2005-03-14 09:59:29 51°24.144 3°2.228 2.8 72 4.2 101290 91
2005-03-14 09:59:34 51°24.156 3°2.246 2.9 57 4.2 101290 91
2005-03-14 09:59:39 51°24.168 3°2.264 3.4 48 4.2 101290 91
2005-03-14 09:59:43 51°24.18 3°2.281 3.4 49 4.2 101290 91
2005-03-14 09:59:49 51°24.193 3°2.3 3.1 62 4.2 101290 91
2005-03-14 09:59:54 51°24.207 3°2.32 3.4 54 4.2 101290 91
2005-03-14 09:59:59 51°24.218 3°2.337 3.3 58 4.2 101290 91
2005-03-14 10:00:04 51°24.231 3°2.355 3.6 59 4.2 101290 91
2005-03-14 10:00:09 51°24.243 3°2.373 3.3 55 4.2 101290 91
2005-03-14 10:00:14 51°24.256 3°2.391 3.1 45 4.2 101290 91
2005-03-14 10:00:19 51°24.268 3°2.409 3 50 4.2 101290 91
2005-03-14 10:00:23 51°24.278 3°2.424 3.1 53 4.2 101290 91
2005-03-14 10:00:29 51°24.293 3°2.445 3 64 4.2 101290 91
2005-03-14 10:00:33 51°24.303 3°2.462 2.8 67 4.2 101290 91
2005-03-14 10:00:39 51°24.317 3°2.481 3.3 48 4.2 101290 91
2005-03-14 10:00:43 51°24.326 3°2.496 3.2 53 4.2 101290 91
2005-03-14 10:00:49 51°24.342 3°2.517 2.9 78 4.2 101290 91
2005-03-14 10:00:53 51°24.352 3°2.535 3.1 63 4.2 101290 91
2005-03-14 10:00:59 51°24.367 3°2.555 2.7 55 4.2 101290 91
2005-03-14 10:01:04 51°24.379 3°2.573 2.8 58 4.2 101290 91
2005-03-14 10:01:09 51°24.391 3°2.591 2.6 58 4.2 101290 91
2005-03-14 10:01:13 51°24.402 3°2.608 2.5 61 4.2 101290 91
2005-03-14 10:01:19 51°24.416 3°2.628 3.1 44 4.2 101290 91
2005-03-14 10:01:23 51°24.426 3°2.642 3.2 50 4.2 101290 91
2005-03-14 10:01:29 51°24.441 3°2.665 3.1 55 4.2 101290 91
2005-03-14 10:01:33 51°24.453 3°2.681 3 49 4.2 101290 91
2005-03-14 10:01:39 51°24.467 3°2.701 3.2 51 4.2 101290 91
2005-03-14 10:01:43 51°24.477 3°2.716 3.3 52 4.2 101290 91
2005-03-14 10:01:49 51°24.492 3°2.738 3 43 4.2 101290 91
2005-03-14 10:01:54 51°24.506 3°2.758 3 51 4.2 101290 91
2005-03-14 10:01:59 51°24.517 3°2.775 3.1 60 4.2 101290 91
2005-03-14 10:02:04 51°24.53 3°2.794 3.3 59 4.2 101290 91
2005-03-14 10:02:09 51°24.542 3°2.812 3.3 43 4.2 101290 91
2005-03-14 10:02:13 51°24.553 3°2.829 3.3 54 4.2 101300 91
2005-03-14 10:02:19 51°24.567 3°2.851 3.4 53 4.2 101300 91
2005-03-14 10:02:24 51°24.58 3°2.869 3.6 47 4.2 101290 90
2005-03-14 10:02:29 51°24.591 3°2.888 3.5 56 4.2 101290 90
2005-03-14 10:02:33 51°24.603 3°2.905 3.4 58 4.2 101290 91
2005-03-14 10:02:39 51°24.616 3°2.926 3.3 46 4.2 101290 91
2005-03-14 10:02:43 51°24.627 3°2.941 2.9 53 4.2 101290 91
2005-03-14 10:02:49 51°24.641 3°2.964 3.3 54 4.2 101290 91
2005-03-14 10:02:54 51°24.654 3°2.982 3.4 58 4.2 101290 90
2005-03-14 10:02:59 51°24.665 3°3.001 3.2 62 4.2 101290 90
2005-03-14 10:03:03 51°24.675 3°3.016 3.4 49 4.2 101300 90
2005-03-14 10:03:09 51°24.69 3°3.039 3.3 61 4.2 101300 90
2005-03-14 10:03:13 51°24.701 3°3.056 3.7 47 4.2 101290 90
2005-03-14 10:03:19 51°24.714 3°3.077 3.1 77 4.2 101290 90
2005-03-14 10:03:24 51°24.727 3°3.096 2.5 70 4.3 101300 90
2005-03-14 10:03:29 51°24.74 3°3.117 3.1 61 4.3 101300 90
2005-03-14 10:03:33 51°24.75 3°3.132 3.4 59 4.2 101290 90
2005-03-14 10:03:39 51°24.763 3°3.153 3.7 55 4.2 101290 90
2005-03-14 10:03:44 51°24.775 3°3.172 3.6 55 4.2 101290 90
2005-03-14 10:03:49 51°24.787 3°3.192 3.2 62 4.2 101290 90
2005-03-14 10:03:54 51°24.799 3°3.211 2.6 60 4.2 101290 90
2005-03-14 10:03:59 51°24.81 3°3.23 2.7 70 4.2 101290 90
2005-03-14 10:04:03 51°24.82 3°3.249 3.8 58 4.2 101290 90
2005-03-14 10:04:09 51°24.832 3°3.27 3.8 50 4.2 101290 90